YAMAL 401

Last updated on Wed Sep 17 2025 00:02:48 GMT+0000 (Coordinated Universal Time)

1 40345U 14082A 25259.60158542 -.00000247 00000+0 00000+0 0 9997 2 40345 0.0102 154.3415 0000883 109.1552 38.8098 1.00269526 39173
UTC large
Height (km)
Speed (km/s)
/
Latitude / Longitude
Inclination (degrees)
Orbital Period (minutes)
Azimuth
Elevation
Range (km)
Doppler Factor

Next 0 passes for location: London (51.5072 / 0.1276)

Sorry there are no passes over London.